Regional Weather Roundup
Issued by NWS

Home | Current Version | Previous Version | Graphics & Text | Print | Product List | Glossary On
Versions: 1 2 3 4 5 6 7 8 9 10 11 12 13 14 15 16 17 18 19 20 21 22 23 24 25 26 27 28 29 30 31 32 33 34 35 36 37 38 39 40 41 42 43 44 45 46 47 48 49 50
000
ASUS43 KMKX 080200
RWRWI

WISCONSIN REGIONAL WEATHER ROUNDUP
NATIONAL WEATHER SERVICE MILWAUKEE/SULLIVAN WI
800 PM CST SUN FEB 07 2016

NOTE: "FAIR" INDICATES FEW OR NO CLOUDS BELOW 12,000 FEET WITH NO
SIGNIFICANT WEATHER AND/OR OBSTRUCTIONS TO VISIBILITY.

WIZ001-002-006>008-014>016-023>028-080300-
NORTHWEST WISCONSIN

CITY           SKY/WX    TMP DP  RH WIND       PRES   REMARKS
SUPERIOR ARPT  LGT SNOW  29  26  88 NW12      29.62R WCI  19
ASHLAND        LGT SNOW  31  30  96 W9        29.55R FOG     WCI  23
HAYWARD        LGT SNOW  28  24  85 W7G18     29.58R FOG     WCI  21
SIREN          LGT SNOW  26  22  85 NW17G23   29.65R WCI  13
CUMBERLAND     LGT SNOW  27  23  86 W16       29.61R WCI  14
RICE LAKE      LGT SNOW  29  25  88 W18G24    29.63R WCI  16
CHETEK         LGT SNOW  29  27  90 NW12G23   29.61R WCI  20
LADYSMITH      LGT SNOW  32  31  96 W15       29.57S WCI  22
EAU CLAIRE     NOT AVBL
MENOMONIE      LGT SNOW  32  26  79 W21       29.63R WCI  20
NEW RICHMOND   LGT SNOW  26  21  83 NW23G29   29.67R WCI  11
OSCEOLA        LGT SNOW  26  22  85 W13G22    29.71R WCI  15
$$

WIZ003>005-009-010-017-018-080300-
NORTH CENTRAL WISCONSIN

CITY           SKY/WX    TMP DP  RH WIND       PRES   REMARKS
MANITOWISH WTR LGT SNOW  31  31 100 SW7       29.51S WCI  25
ARBOR VITAE    LGT SNOW  33  31  93 SW5       29.52S WCI  28
WOODRUFF       LGT SNOW  33  31  93 SW5       29.52S WCI  28
RHINELANDER    CLOUDY    32  27  81 W10       29.53F WCI  24
EAGLE RIVER    CLOUDY    32  31  96 SW5       29.51S WCI  27
LAND O LAKES   LGT SNOW  32  32  99 SW3       29.52S
PHILLIPS       LGT SNOW  32  31  98 SW5       29.52F WCI  27
TOMAHAWK       CLOUDY    32  27  81 CALM      29.55S
MEDFORD        CLOUDY    33  28  81 SW7       29.55F WCI  27
MERRILL        CLOUDY    35  27  74 W13       29.56F WCI  26
$$

WIZ029-030-035-036-043>047-080300-
CENTRAL WISCONSIN

CITY           SKY/WX    TMP DP  RH WIND       PRES   REMARKS
WAUSAU         CLOUDY    37  26  64 SW8       29.55F WCI  31
MOSINEE        NOT AVBL
MARSHFIELD     CLOUDY    36  25  64 W15       29.57F WCI  27
STEVENS POINT  CLOUDY    35  24  66 SW7       29.60S WCI  29
WAUPACA        CLOUDY    38  28  64 SW9       29.61F WCI  32
WAUTOMA        NOT AVBL
WISC RAPIDS    CLOUDY    36  24  62 SW7       29.61F WCI  30
CAMP DOUGLAS   CLOUDY    36  32  87 SW12      29.62F WCI  27
$$

WIZ011>013-019>022-031-037>040-048>050-080300-
NORTHEAST WISCONSIN

CITY           SKY/WX    TMP DP  RH WIND       PRES   REMARKS
ANTIGO         MOCLDY    33  27  77 SW12      29.55F WCI  25
SHAWANO        CLOUDY    39  29  69 SW5       29.59F
OCONTO         CLOUDY    37  30  77 SW3       29.59F
STURGEON BAY   CLOUDY    36  28  75 S9        29.62S WCI  29
GREEN BAY      CLOUDY    37  29  72 SW6       29.61S WCI  32
MANITOWOC      NOT AVBL
APPLETON       CLOUDY    36  27  69 S8        29.60S WCI  29
CLINTONVILLE   CLOUDY    37  27  65 W9        29.60F WCI  31
OSHKOSH        CLOUDY    36  26  67 VRB5      29.63S WCI  32
$$

WIZ032>034-041-042-053>061-080300-
SOUTHWEST WISCONSIN

CITY           SKY/WX    TMP DP  RH WIND       PRES   REMARKS
LA CROSSE      CLOUDY    37  30  75 W15G22    29.65F WCI  28
SPARTA         CLOUDY    37  29  74 SW5       29.65S WCI  33
VIROQUA        CLOUDY    34  29  83 W16G22    29.65F WCI  24
BOSCOBEL       CLOUDY    37  30  75 SW9       29.70F WCI  30
PRAIRIE DU CHI CLOUDY    36  27  71 SW10G16   29.71F WCI  28
PLATTEVILLE    PTCLDY    33  30  88 SW10      29.71F WCI  25
$$

WIZ056-057-062-063-064-067-068-080300-
SOUTH CENTRAL WISCONSIN

CITY           SKY/WX    TMP DP  RH WIND       PRES   REMARKS
REEDSBURG      CLOUDY    36  28  74 SW8       29.65F WCI  29
BARABOO/DELLS  CLOUDY    36  26  69 SW9       29.65F WCI  29
LONE ROCK      CLOUDY    36  27  69 W10       29.69F WCI  28
MINERAL POINT  CLEAR     34  30  86 SW12      29.69F WCI  25
MADISON        PTCLDY    34  26  72 SW6       29.68S WCI  29
MIDDLETON      CLEAR     37  27  69 SW9       29.68F WCI  30
WATERTOWN      PTCLDY    35  27  74 SW8       29.68S WCI  28
MONROE         CLEAR     34  30  86 SW17      29.70F WCI  23
JANESVILLE     PTCLDY    36  28  75 SW12      29.71F WCI  27
$$

WIZ051-052-058>065-066-070>072-080300-
SOUTHEAST WISCONSIN

CITY           SKY/WX    TMP DP  RH WIND       PRES   REMARKS
MILWAUKEE      PTCLDY    37  25  61 W12       29.68F WCI  29
WAUKESHA       CLEAR     34  25  69 SW12      29.68F WCI  25
MILWAUKEE/TIMM NOT AVBL
RACINE         CLEAR     36  25  64 W10       29.70F WCI  28
BURLINGTON     CLEAR     34  26  74 SW14G21   29.70S WCI  24
KENOSHA        CLEAR     35  27  72 W10       29.69F WCI  27
FOND DU LAC    MOCLDY    34  26  72 SW7       29.64F WCI  28
SHEBOYGAN      CLOUDY    35  28  75 SW9       29.65S WCI  28
WEST BEND      PTCLDY    34  27  75 SW12      29.66S WCI  25
JUNEAU         MOCLDY    34  27  75 SW9       29.68R WCI  26
$$

LSZ147-162-080300-
LAKE SUPERIOR

STATION/POSITION TIME  TEMP    WIND        PRES    WAVE
                       AIR SEA DIR/SP/G            HT/PER
                 (UTC) (F)     (DEG/KT/KT) (MB)    (FT/S)
DEVILS ISLAND    0100   32      40/ 21/ 24 1000.1R
PORT WING        0100   31     260/ 13/ 17 1001.7R
SAXON HARBOR     0100   34                 1000.0
$$

LMZ867-665-643>646-080300-
LAKE MICHIGAN

STATION/POSITION TIME  TEMP    WIND        PRES    WAVE
                       AIR SEA DIR/SP/G            HT/PER
                 (UTC) (F)     (DEG/KT/KT) (MB)    (FT/S)
CHAMBERS ISLAND  0100   37     190/  5/ 12 1002.7F
NORTHPORT PIER   0100   37      CALM  /  3 1002.4F
KEWAUNEE LAKESHO 0100   38                 1002.4F
SHEBOYGAN LAKESH 0100   39     220/ 12/ 13 1004.7F
PORT WASHINGTON  0100   38     240/  8/ 10 1005.8S
MILWAUKEE LAKESH 0110   39     240/ 12/ 15   N/A
KENOSHA   LAKESH 0100   39     260/  9/ 17 1006.1S
$$

TC  - TEMPERATURE IN CELSIUS
VSB - VISIBILITY IN STATUTE MILES
WCI - WIND CHILL INDEX
HX  - HEAT INDEX




USA.gov is the U.S. government's official web portal to all federal, state and local government web resources and services.